Back to catalog

SL-3 R/B

AlivePO
NORAD 11608·ROCKET BODY·🇷🇺 Russia

Launched Oct 31, 1979 from Plesetsk Cosmodrome

Loading…

Next Passes (next 24 hours)

TLE

FreshSource: Space-Track

Epoch: Sep 14, 2026, 12:29 UTC

1 11608U 79095B   26257.52054993  .00000291  00000-0  16581-3 0  9991
2 11608  81.2161 173.6826 0054438  36.0645 324.4176 14.06574389404370

Track SL-3 R/B in real time with AllMySat

Download on the App Store